Location: Vancouver
(49.2500°N, 123.1330°W)
Time: 14:44:40
(UTC-08:00)

Oscar 11 - Visible Passes

Search period start: 25 February 2017 00:00
Search period end: 07 March 2017 00:00
Orbit: 614 x 626 km, 97.7° (Epoch: 25 February)

Date Brightness Start Highest point End Pass type
(mag) Time Alt. Az. Time Alt. Az. Time Alt. Az.
25 Feb 9.0 18:37:01 10° ENE 18:38:27 12° NE 18:40:03 10° NE visible
25 Feb 7.0 20:14:10 74° NNE 20:14:10 74° NNE 20:18:14 10° NNW visible
25 Feb 10.1 21:51:20 12° WNW 21:51:20 12° WNW 21:52:27 10° WNW visible
26 Feb 8.7 18:54:24 15° ENE 18:55:34 16° ENE 18:58:17 10° NNE visible
26 Feb 7.4 20:31:34 65° WNW 20:31:34 65° WNW 20:35:35 10° NNW visible
27 Feb 8.3 19:11:47 21° E 19:12:44 23° ENE 19:16:08 10° NNE visible
27 Feb 8.0 20:48:57 45° W 20:48:57 45° W 20:52:50 10° NNW visible
28 Feb 7.8 19:29:10 29° E 19:29:57 31° ENE 19:33:48 10° N visible
28 Feb 8.7 21:06:19 31° W 21:06:19 31° W 21:09:58 10° NNW visible
01 Mar 7.4 19:46:33 41° E 19:47:12 45° ENE 19:51:21 10° N visible
01 Mar 9.3 21:23:43 22° W 21:23:43 22° W 21:26:57 10° NW visible
02 Mar 7.0 20:03:56 59° ESE 20:04:29 66° ENE 20:08:49 10° N visible
02 Mar 9.8 21:41:05 15° W 21:41:05 15° W 21:43:38 10° NW visible
03 Mar 8.9 18:44:09 10° E 18:46:18 14° ENE 18:48:31 10° NNE visible
03 Mar 7.0 20:21:19 69° S 20:21:49 85° WSW 20:26:12 10° NNW visible
03 Mar 10.1 21:58:28 10° W 21:58:39 10° W 21:59:08 10° W visible
04 Mar 8.5 19:01:33 15° E 19:03:26 19° ENE 19:06:31 10° NNE visible
04 Mar 7.6 20:38:42 53° SW 20:39:11 57° W 20:43:30 10° NNW visible
05 Mar 8.1 19:18:56 20° E 19:20:37 26° ENE 19:24:15 10° N visible
05 Mar 8.3 20:56:05 37° WSW 20:56:37 38° W 21:00:42 10° NNW visible
06 Mar 7.6 19:36:19 28° ESE 19:37:51 37° ENE 19:41:51 10° N visible
06 Mar 8.9 21:13:29 25° WSW 21:14:04 26° W 21:17:46 10° NW visible
